Date String (YYYY-MM-DD hh:mm:ss) UTC,Instrument flags,absolute air pressure of the measurement (hPa),sample flow rate (lpm),inlet stack bypass flow (lpm),air temperature of the measurement (°C),ambient temperature measured by the external sensor (°C),aerosol sample conditioner tube jacket temperature (°C),OPC LED temperature (°C),internal box temperature (°C),relative humidity of the measurement (%),span deviation,mass concentration of particles derived from Lorenz-Mie calculation of OPC scattering (μg/m³),mass concentration of particles derived from Lorenz-Mie calculation of OPC scattering (μg/m³),mass concentration of particles derived from Lorenz-Mie calculation of OPC scattering (μg/m³)
DateTimeUTC,F1_M11,P_M11,Q1_M11,Q2_M11,T1_M11,T2_M11,T3_M11,T4_M11,T5_M11,U1_M11,ZSPAN_M11,X2_M11,X0_M11,X1_M11
2023-12-07 03:00:00,SystemResetWarning,0827.4,4.99,000.00,025.9,024.9,000.0,034.3,027.2,12.0,0000.0,0006.68,0011.98,0006.16
2023-12-07 03:01:00,SystemResetWarning,0827.4,5.00,000.00,025.9,024.9,000.0,034.3,027.2,13.1,0000.0,0006.73,0013.35,0006.20
2023-12-07 03:02:00,SystemResetWarning,0827.4,5.00,000.00,025.9,024.9,000.0,034.3,027.2,13.9,0000.0,0006.85,0013.53,0006.28
2023-12-07 03:03:00,SystemResetWarning,0827.4,5.00,000.00,025.9,024.9,000.0,034.3,027.2,14.1,0000.0,0006.93,0013.61,0006.35
2023-12-07 03:04:00,SystemResetWarning,0827.4,5.01,000.00,025.9,024.9,000.0,034.3,027.2,13.9,0000.0,0006.89,0013.57,0006.31
2023-12-07 03:05:00,SystemResetWarning,0827.4,5.00,000.00,025.9,024.9,000.0,034.3,027.2,13.4,0000.0,0006.70,0013.41,0006.13
2023-12-07 03:06:00,SystemResetWarning,0827.3,5.00,000.00,025.9,024.9,000.0,034.3,027.2,13.4,0000.0,0006.48,0013.91,0005.93
2023-12-07 03:07:00,SystemResetWarning,0827.3,5.00,000.00,025.9,024.9,000.0,034.3,027.2,13.4,0000.0,0006.32,0014.21,0005.77
2023-12-07 03:08:00,SystemResetWarning,0827.3,4.99,000.00,025.9,024.8,000.0,034.3,027.2,13.3,0000.0,0006.14,0013.93,0005.62
2023-12-07 03:09:00,SystemResetWarning,0827.2,5.00,000.00,025.9,024.8,000.0,034.3,027.2,12.9,0000.0,0006.06,0014.01,0005.51
2023-12-07 03:10:00,SystemResetWarning,0827.2,5.00,000.00,025.9,024.8,000.0,034.3,027.2,12.8,0000.0,0005.95,0013.96,0005.42
2023-12-07 03:11:00,SystemResetWarning,0827.1,5.00,000.00,025.8,024.8,000.0,034.2,027.2,12.9,0000.0,0005.93,0013.04,0005.42
2023-12-07 03:12:00,SystemResetWarning,0827.2,5.00,000.00,025.8,024.8,000.0,034.2,027.2,12.5,0000.0,0005.94,0011.75,0005.43
2023-12-07 03:13:00,SystemResetWarning,0827.1,5.01,000.00,025.8,024.7,000.0,034.2,027.2,11.7,0000.0,0005.93,0011.96,0005.43
2023-12-07 03:14:00,SystemResetWarning,0827.1,5.00,000.00,025.8,024.7,000.0,034.2,027.1,12.1,0000.0,0005.86,0011.80,0005.37
2023-12-07 03:15:00,SystemResetWarning,0827.2,5.00,000.00,025.8,024.7,000.0,034.2,027.1,11.6,0000.0,0005.87,0011.66,0005.39
2023-12-07 03:16:00,SystemResetWarning,0827.1,5.01,000.00,025.8,024.7,000.0,034.2,027.1,10.2,0000.0,0006.05,0012.56,0005.54
2023-12-07 03:17:00,SystemResetWarning,0827.1,5.01,000.00,025.8,024.7,000.0,034.2,027.1,9.8,0000.0,0006.26,0012.42,0005.71
2023-12-07 03:18:00,SystemResetWarning,0827.1,5.00,000.00,025.8,024.7,000.0,034.2,027.1,10.9,0000.0,0006.42,0012.66,0005.86
2023-12-07 03:19:00,SystemResetWarning,0827.1,4.99,000.00,025.8,024.7,000.0,034.2,027.1,10.6,0000.0,0006.60,0013.25,0005.99
2023-12-07 03:20:00,SystemResetWarning,0827.1,4.99,000.00,025.8,024.7,000.0,034.2,027.1,10.3,0000.0,0006.72,0013.13,0006.11
2023-12-07 03:21:00,SystemResetWarning,0827.1,5.00,000.00,025.8,024.7,000.0,034.2,027.2,9.9,0000.0,0006.77,0012.74,0006.19
2023-12-07 03:22:00,SystemResetWarning,0827.1,5.01,000.00,025.8,024.7,000.0,034.2,027.2,9.5,0000.0,0006.73,0012.59,0006.14
2023-12-07 03:23:00,SystemResetWarning,0827.1,5.00,000.00,025.8,024.8,000.0,034.2,027.1,8.6,0000.0,0006.62,0013.17,0006.02
2023-12-07 03:24:00,SystemResetWarning,0827.1,5.00,000.00,025.8,024.8,000.0,034.2,027.1,8.3,0000.0,0006.51,0012.80,0005.90
2023-12-07 03:25:00,SystemResetWarning,0827.1,5.00,000.00,025.8,024.7,000.0,034.2,027.1,8.8,0000.0,0006.39,0013.29,0005.77
2023-12-07 03:26:00,SystemResetWarning,0827.0,5.00,000.00,025.8,024.7,000.0,034.2,027.1,8.8,0000.0,0006.17,0013.11,0005.56
2023-12-07 03:27:00,SystemResetWarning,0827.0,4.99,000.00,025.8,024.7,000.0,034.2,027.1,8.7,0000.0,0005.97,0012.26,0005.36
2023-12-07 03:28:00,SystemResetWarning,0827.0,4.99,000.00,025.8,024.7,000.0,034.2,027.1,8.3,0000.0,0005.83,0012.30,0005.25
2023-12-07 03:29:00,SystemResetWarning,0827.0,5.00,000.00,025.8,024.7,000.0,034.2,027.1,8.5,0000.0,0005.70,0011.95,0005.12
2023-12-07 03:30:00,SystemResetWarning,0827.0,5.00,000.00,025.8,024.7,000.0,034.2,027.1,9.0,0000.0,0005.51,0011.27,0004.98
2023-12-07 03:31:00,SystemResetWarning,0827.0,5.00,000.00,025.8,024.7,000.0,034.2,027.1,9.1,0000.0,0005.29,0010.88,0004.81
2023-12-07 03:32:00,SystemResetWarning,0827.0,5.00,000.00,025.8,024.7,000.0,034.2,027.0,9.4,0000.0,0005.10,0010.50,0004.61
2023-12-07 03:33:00,SystemResetWarning,0826.9,5.00,000.00,025.7,024.6,000.0,034.2,027.0,9.4,0000.0,0004.83,0010.15,0004.36
2023-12-07 03:34:00,SystemResetWarning,0826.9,5.00,000.00,025.7,024.6,000.0,034.2,027.0,9.5,0000.0,0004.53,0009.05,0004.10
2023-12-07 03:35:00,SystemResetWarning,0826.9,5.00,000.00,025.7,024.6,000.0,034.1,027.0,9.6,0000.0,0004.15,0008.62,0003.77
2023-12-07 03:36:00,SystemResetWarning,0827.0,5.00,000.00,025.7,024.6,000.0,034.1,026.9,9.4,0000.0,0003.82,0007.59,0003.49
2023-12-07 03:37:00,SystemResetWarning,0827.0,5.00,000.00,025.7,024.6,000.0,034.1,026.9,8.7,0000.0,0003.63,0007.10,0003.34
2023-12-07 03:38:00,SystemResetWarning,0826.9,5.01,000.00,025.7,024.6,000.0,034.1,026.9,9.6,0000.0,0003.48,0006.72,0003.20
2023-12-07 03:39:00,SystemResetWarning,0826.9,4.99,000.00,025.7,024.6,000.0,034.1,027.0,8.9,0000.0,0003.19,0005.42,0002.83
2023-12-07 03:40:00,SystemResetWarning,0826.9,4.99,000.00,025.7,024.6,000.0,034.1,027.0,8.7,0000.0,0002.82,0004.10,0002.46
2023-12-07 03:41:00,SystemResetWarning,0826.9,4.99,000.00,025.7,024.6,000.0,034.1,027.0,9.5,0000.0,0002.42,0003.47,0002.11
2023-12-07 03:42:00,SystemResetWarning,0826.9,5.00,000.00,025.7,024.6,000.0,034.1,027.0,9.8,0000.0,0002.19,0003.24,0001.88
2023-12-07 03:43:00,SystemResetWarning,0826.9,5.01,000.00,025.7,024.6,000.0,034.1,027.0,10.0,0000.0,0002.05,0003.07,0001.73
2023-12-07 03:44:00,SystemResetWarning,0826.9,5.00,000.00,025.7,024.6,000.0,034.1,027.0,10.2,0000.0,0002.07,0003.00,0001.76
2023-12-07 03:45:00,SystemResetWarning,0826.8,4.99,000.00,025.7,024.6,000.0,034.1,027.0,10.4,0000.0,0002.22,0003.17,0001.90
2023-12-07 03:46:00,SystemResetWarning,0826.9,4.99,000.00,025.7,024.6,000.0,034.1,027.0,10.5,0000.0,0002.41,0003.79,0002.07
2023-12-07 03:47:00,SystemResetWarning,0826.8,5.00,000.00,025.7,024.6,000.0,034.1,026.9,10.4,0000.0,0002.55,0003.90,0002.20
2023-12-07 03:48:00,SystemResetWarning,0826.8,5.01,000.00,025.7,024.6,000.0,034.1,027.0,10.0,0000.0,0002.78,0004.28,0002.41
2023-12-07 03:49:00,SystemResetWarning,0826.8,5.00,000.00,025.7,024.6,000.0,034.1,027.0,9.2,0000.0,0002.88,0004.31,0002.54
2023-12-07 03:50:00,SystemResetWarning,0826.8,5.00,000.00,025.7,024.6,000.0,034.1,027.0,9.4,0000.0,0003.03,0004.47,0002.70
2023-12-07 03:51:00,SystemResetWarning,0826.8,5.00,000.00,025.7,024.6,000.0,034.1,027.0,9.3,0000.0,0003.21,0005.65,0002.96
2023-12-07 03:52:00,SystemResetWarning,0826.7,5.00,000.00,025.7,024.6,000.0,034.1,026.9,7.6,0000.0,0003.35,0006.41,0003.16
2023-12-07 03:53:00,SystemResetWarning,0826.7,4.99,000.00,025.7,024.6,000.0,034.0,027.0,7.2,0000.0,0003.48,0006.72,0003.30
2023-12-07 03:54:00,SystemResetWarning,0826.6,4.99,000.00,025.7,024.6,000.0,034.0,027.0,7.0,0000.0,0003.58,0006.98,0003.39
2023-12-07 03:55:00,SystemResetWarning,0826.6,5.01,000.00,025.6,024.6,000.0,034.0,027.0,7.1,0000.0,0003.67,0007.38,0003.48
2023-12-07 03:56:00,SystemResetWarning,0826.6,5.00,000.00,025.6,024.6,000.0,034.0,027.0,7.0,0000.0,0003.77,0007.55,0003.55
2023-12-07 03:57:00,SystemResetWarning,0826.6,5.01,000.00,025.6,024.6,000.0,034.0,026.9,7.2,0000.0,0003.86,0007.41,0003.64
2023-12-07 03:58:00,SystemResetWarning,0826.6,5.01,000.00,025.6,024.6,000.0,034.0,026.9,7.4,0000.0,0003.96,0007.59,0003.71
2023-12-07 03:59:00,SystemResetWarning,0826.6,5.00,000.00,025.6,024.6,000.0,034.0,027.0,7.3,0000.0,0003.94,0007.65,0003.68
